Location: Benque
(43.2594°N, 0.9178°E)
Time: 18:43:54
(UTC+00:00)

ISS - Pass Details

Date: 24 January 2020
Orbit: 415 x 423 km, 51.6° (Epoch: 28 February)

Event Time Altitude Azimuth Distance (km) Brightness Sun altitude
Rises 17:16:05 0° 225° (SW) 2,369 1.6 -4.0°
Reaches altitude 10° 17:18:12 10° 220° (SW) 1,507 0.3 -4.4°
Maximum altitude 17:21:31 54° 143° (SE) 519 -3.4 -4.9°
Drops below altitude 10° 17:24:50 10° 64° (ENE) 1,512 -1.6 -5.5°
Enters shadow 17:25:24 - 63° (ENE) 1,740 -1.3 -5.6°
